Wind_Speed
27 26 24 23 21 20 19 17 17 16 14 13 12 11 10 10 10 9 9 8 8 8 8 9 10 10 11 11 11 12 13 13 15 15 16 16 16 17 18 19 20 21 21
28 27 26 24 23 22 21 19 18 17 16 14 14 13 12 11 11 10 10 9 9 9 10 10 11 11 11 11 12 12 13 14 15 16 16 16 17 18 19 20 21 22 22
27 28 27 26 25 23 22 21 20 19 17 16 15 14 13 12 12 11 11 11 11 10 10 11 11 11 11 11 12 13 14 15 15 16 16 17 17 19 20 21 22 22 23
28 28 28 27 26 25 24 23 21 20 19 17 16 15 14 14 13 13 12 12 12 11 11 12 12 12 12 13 13 14 15 15 16 16 17 18 19 20 21 22 23 24 25
29 28 29 29 28 27 25 24 23 22 20 19 18 17 15 15 14 14 13 13 13 13 13 12 12 12 13 13 14 15 15 16 17 18 19 20 20 21 22 23 24 25 26
30 29 29 30 29 28 27 25 24 23 21 20 19 18 16 16 15 15 14 14 14 13 13 13 13 13 14 14 15 16 16 17 18 19 20 21 21 22 23 24 25 26 27
31 31 30 30 30 29 28 27 26 24 22 21 20 19 18 17 16 16 15 15 14 14 14 14 14 14 15 15 16 17 17 18 19 20 21 22 22 23 24 25 26 27 28
32 32 31 30 30 30 29 28 27 25 24 22 21 20 19 18 17 17 16 16 15 15 15 15 15 15 15 16 16 17 18 19 20 21 22 22 23 24 25 26 27 28 29
33 33 32 31 31 30 29 29 28 27 25 24 22 21 20 19 19 18 17 16 16 16 16 16 16 16 16 16 17 18 19 20 21 21 22 23 24 25 26 27 28 29 29
34 33 33 32 31 31 30 30 29 28 26 25 24 22 21 20 20 19 18 17 17 17 16 16 16 16 16 17 17 19 20 21 21 22 23 24 25 26 27 28 29 29 30
34 33 33 32 32 31 31 30 30 29 27 26 24 23 22 21 20 19 19 18 17 17 17 17 17 17 17 18 18 20 21 21 22 22 23 24 25 26 28 29 29 30 31
35 34 33 33 32 32 32 31 30 29 27 26 25 24 22 21 21 20 19 19 18 18 18 17 17 17 18 18 19 20 21 21 22 23 24 25 26 27 28 29 30 31 31
36 35 34 34 33 32 32 32 31 29 28 27 26 24 23 22 21 21 20 20 19 19 18 18 18 18 18 19 20 21 21 22 23 24 25 26 27 28 29 30 31 32 32
37 36 35 34 34 33 32 32 31 30 29 28 27 25 24 23 22 22 21 20 20 20 19 19 19 19 19 20 20 21 22 23 24 25 26 27 27 28 29 31 31 32 33
38 37 35 35 35 34 33 32 31 31 30 29 28 26 25 24 24 23 22 21 21 20 19 20 20 20 20 20 21 22 23 23 24 25 26 27 28 29 30 31 32 33 34
39 37 36 36 36 35 34 33 32 31 31 30 29 27 25 25 25 24 23 22 21 20 20 21 21 21 20 21 22 22 23 24 25 26 27 28 29 30 31 32 33 33 34
40 39 38 37 37 36 36 35 33 32 31 31 30 28 27 26 25 24 23 23 22 21 21 21 21 21 21 22 22 23 24 25 27 27 28 29 30 31 32 33 34 34 35
42 40 39 38 37 37 36 35 34 33 32 32 30 29 28 27 26 25 24 23 23 22 22 22 22 22 22 22 23 24 25 26 27 28 29 30 31 32 33 34 35 36 36
44 42 40 39 38 38 37 36 35 34 33 32 31 30 29 27 26 25 24 24 23 23 23 23 22 23 23 23 24 25 26 27 28 29 30 31 32 33 34 35 36 36 37
46 44 42 41 40 39 38 37 36 35 34 32 31 30 29 28 27 25 24 24 24 23 23 23 23 23 23 24 25 26 27 28 29 30 31 32 33 34 35 36 36 37 38
48 46 44 42 41 40 39 37 36 35 34 32 31 31 29 28 27 26 25 25 24 24 23 24 24 24 25 25 26 27 28 29 30 31 32 33 34 35 36 36 37 38 39
50 48 46 45 42 41 39 38 37 36 35 34 33 31 30 29 28 28 27 26 25 25 24 25 25 26 26 27 28 29 29 30 31 31 33 34 35 35 36 37 38 39 40
51 50 48 46 44 42 41 40 39 38 36 34 33 32 31 30 30 29 28 27 26 26 26 26 27 27 28 29 29 30 30 30 31 32 33 34 35 36 37 38 39 40 41
52 51 49 47 45 44 43 42 40 38 36 34 34 33 32 31 30 30 29 28 27 27 27 28 29 29 29 29 30 31 31 32 32 33 34 35 36 37 38 39 40 41 42
53 52 51 49 47 46 45 43 41 39 37 36 35 34 33 32 31 30 30 29 29 29 29 29 29 30 30 30 31 32 32 32 34 34 34 35 36 37 39 40 41 42 43
54 53 52 51 49 48 46 44 43 40 39 38 36 35 34 33 32 31 31 30 29 29 30 30 30 30 31 32 32 32 33 33 34 35 36 36 37 38 40 41 42 43 44
Wind_Direction
226 225 225 224 224 226 227 227 227 228 230 231 233 235 238 241 245 250 256 262 269 276 282 287 292 297 301 303 307 308 307 308 309 310 311 312 311 310 310 309 309 308 307
227 227 226 225 225 225 226 227 227 228 229 231 235 237 239 242 247 253 259 264 270 276 281 285 290 296 299 302 304 305 306 307 309 311 312 312 311 311 311 311 310 309 308
228 227 227 226 225 225 225 227 228 228 229 231 234 237 239 242 248 254 258 263 270 276 280 284 290 294 298 301 303 304 305 306 308 310 311 311 311 311 311 311 310 309 308
228 226 227 227 226 225 225 227 227 228 229 231 233 236 240 243 249 254 257 262 269 274 278 283 288 293 297 299 302 303 304 305 308 309 309 310 310 311 311 311 310 309 309
228 226 225 226 226 226 226 227 227 228 230 231 232 235 240 245 249 254 256 260 267 272 276 281 286 291 295 298 300 302 303 305 306 308 308 309 310 311 311 311 311 311 310
228 226 225 225 226 226 227 227 228 228 229 230 232 235 240 244 248 252 256 260 266 269 273 278 284 289 292 296 298 300 301 303 305 306 307 309 310 311 312 311 311 311 311
227 226 226 225 225 226 226 227 228 227 228 230 233 236 240 243 247 251 255 260 262 266 272 278 283 288 291 294 297 299 301 303 305 307 308 309 310 311 312 312 312 312 312
227 226 225 225 225 225 225 226 227 227 228 231 234 236 240 243 246 250 254 257 261 266 272 278 283 287 290 294 296 299 302 304 306 307 309 310 312 313 314 314 314 314 313
228 227 225 225 225 225 224 225 226 227 229 231 233 236 239 243 246 249 251 256 260 265 271 277 282 286 290 293 295 299 302 305 306 308 310 312 313 314 315 315 315 315 315
228 228 226 225 225 225 224 224 225 226 228 230 232 235 239 241 244 246 250 254 259 265 270 276 281 285 289 292 295 299 302 304 306 309 311 312 314 315 316 316 316 316 315
227 226 225 225 225 224 224 224 224 226 228 230 232 235 238 240 243 245 249 253 258 263 269 274 280 284 289 292 295 299 302 304 307 309 311 313 314 315 316 316 316 316 316
226 225 225 225 224 224 223 222 223 224 226 229 231 234 237 240 242 244 249 252 257 263 268 273 279 285 288 291 296 299 302 304 306 309 311 313 315 315 316 316 317 316 316
225 225 224 224 223 223 222 221 222 223 225 227 230 233 236 239 241 244 248 253 258 263 268 273 279 284 287 291 296 299 301 304 307 309 311 313 314 315 316 316 317 316 316
223 223 223 223 222 221 221 221 222 223 224 227 229 233 236 239 241 244 249 254 259 263 267 272 279 284 286 290 295 299 302 305 307 310 311 313 314 315 315 316 317 317 317
222 222 222 221 221 220 221 221 222 223 225 227 229 233 236 239 242 246 250 254 259 263 267 272 278 282 285 290 294 299 302 306 308 310 311 313 314 314 315 316 317 317 317
220 221 221 221 221 221 221 221 222 223 225 228 230 233 237 241 244 248 251 255 260 263 267 273 278 281 285 289 293 298 302 305 308 310 311 312 313 314 315 316 317 317 317
219 220 220 221 221 221 221 221 222 224 226 228 231 234 237 242 245 249 252 256 259 263 268 273 277 280 284 289 293 297 301 305 307 309 310 311 312 314 314 315 316 316 316
219 219 220 221 222 222 222 222 223 225 227 229 232 235 238 242 246 249 251 255 257 262 268 273 276 280 284 289 293 297 301 303 306 308 310 310 311 313 314 314 315 315 315
219 219 220 220 221 222 222 222 224 226 228 230 232 235 238 242 246 249 251 254 258 262 268 272 276 280 284 288 293 297 300 302 304 307 309 310 310 311 313 313 314 314 315
218 219 219 220 221 221 222 222 224 226 228 230 232 234 237 241 245 248 250 254 259 263 268 271 275 280 284 288 292 296 299 301 303 306 308 308 309 310 312 312 313 313 314
218 218 219 220 220 222 223 223 225 227 229 231 232 234 237 240 244 248 250 253 258 263 267 271 275 280 284 288 292 296 298 300 302 304 306 307 308 309 311 312 312 312 313
219 218 219 220 220 222 223 223 224 226 228 229 232 234 237 240 244 248 250 254 259 263 266 270 275 280 285 288 291 294 296 298 301 303 305 307 307 308 310 310 311 311 312
219 219 219 220 221 222 223 223 224 226 228 230 233 235 238 241 245 247 251 255 260 263 267 271 275 280 284 287 290 293 295 297 299 302 304 306 307 308 308 309 310 310 311
219 219 219 220 221 222 223 223 225 227 229 232 234 236 238 241 244 247 252 256 260 264 267 272 276 280 284 286 290 292 294 296 298 301 303 304 306 306 307 308 309 310 311
219 219 219 220 221 222 223 223 225 227 228 231 234 236 239 241 244 247 251 256 260 264 268 272 276 279 283 286 289 291 293 296 298 300 302 303 304 305 306 307 309 309 310
220 218 218 219 221 222 223 224 226 228 230 232 235 238 240 242 244 248 252 256 260 265 269 272 275 278 282 285 288 290 292 295 298 300 302 303 304 305 306 307 308 309 310
Height
5855 5857 5860 5862 5864 5866 5868 5869 5871 5872 5874 5875 5876 5877 5878 5879 5880 5881 5881 5881 5881 5881 5880 5880 5879 5879 5878 5878 5877 5876 5875 5873 5872 5871 5869 5868 5867 5865 5863 5862 5860 5858 5856
5851 5854 5856 5859 5861 5863 5865 5867 5869 5870 5872 5873 5874 5876 5877 5877 5878 5879 5879 5879 5879 5879 5879 5878 5878 5877 5877 5876 5875 5874 5873 5872 5870 5869 5868 5866 5864 5862 5861 5859 5857 5855 5853
5848 5850 5852 5855 5858 5860 5862 5864 5866 5868 5869 5871 5872 5874 5875 5876 5876 5877 5877 5877 5877 5877 5877 5876 5876 5875 5875 5874 5874 5872 5871 5869 5868 5867 5865 5864 5862 5860 5858 5856 5854 5852 5849
5843 5846 5849 5851 5854 5856 5859 5861 5863 5865 5867 5869 5870 5871 5873 5874 5874 5875 5875 5875 5875 5875 5875 5874 5874 5873 5873 5872 5871 5870 5869 5867 5866 5864 5863 5861 5859 5857 5855 5853 5851 5848 5846
5839 5842 5844 5847 5850 5853 5855 5858 5860 5862 5864 5866 5867 5869 5870 5871 5872 5873 5873 5873 5873 5873 5873 5872 5872 5871 5871 5870 5869 5868 5866 5865 5863 5862 5860 5858 5856 5854 5852 5850 5847 5845 5842
5834 5837 5840 5843 5845 5848 5851 5854 5856 5859 5861 5863 5865 5866 5868 5869 5870 5870 5871 5871 5871 5871 5870 5870 5870 5869 5868 5868 5867 5865 5864 5862 5861 5859 5857 5855 5853 5851 5848 5846 5843 5841 5838
5828 5831 5835 5838 5841 5844 5847 5850 5853 5855 5857 5860 5861 5863 5865 5866 5867 5868 5868 5868 5869 5868 5868 5867 5867 5867 5866 5865 5864 5862 5861 5859 5858 5856 5854 5852 5850 5847 5845 5842 5839 5836 5833
5822 5826 5829 5832 5836 5839 5842 5845 5848 5851 5854 5856 5858 5860 5861 5863 5864 5865 5865 5865 5866 5866 5865 5865 5864 5864 5863 5862 5861 5859 5858 5856 5854 5853 5850 5848 5846 5843 5841 5838 5835 5832 5829
5816 5820 5823 5827 5830 5834 5837 5841 5844 5847 5850 5852 5854 5856 5858 5859 5860 5861 5862 5862 5862 5862 5862 5862 5861 5861 5860 5859 5858 5856 5855 5853 5851 5849 5847 5844 5842 5839 5836 5833 5830 5827 5824
5810 5814 5818 5822 5825 5829 5832 5836 5839 5842 5845 5848 5850 5852 5854 5856 5857 5858 5858 5859 5859 5859 5859 5859 5858 5858 5857 5856 5855 5853 5851 5849 5847 5845 5843 5840 5838 5835 5832 5829 5826 5822 5819
5804 5808 5812 5816 5820 5823 5827 5831 5834 5838 5841 5844 5846 5848 5850 5852 5853 5854 5855 5855 5856 5856 5856 5855 5855 5854 5853 5852 5851 5849 5847 5846 5844 5841 5839 5836 5833 5830 5827 5824 5821 5817 5814
5798 5802 5806 5810 5814 5818 5822 5825 5829 5833 5836 5839 5842 5844 5846 5847 5849 5850 5851 5851 5852 5852 5852 5852 5851 5851 5850 5849 5847 5845 5844 5842 5840 5837 5835 5832 5829 5826 5823 5819 5816 5812 5808
5792 5796 5800 5804 5808 5812 5816 5820 5824 5828 5831 5834 5837 5839 5841 5843 5844 5846 5847 5848 5848 5848 5848 5848 5847 5847 5846 5845 5843 5842 5840 5838 5835 5833 5830 5827 5824 5821 5818 5814 5811 5807 5803
5785 5790 5794 5798 5802 5807 5811 5815 5819 5823 5826 5829 5832 5834 5837 5838 5840 5841 5843 5843 5844 5844 5844 5844 5843 5843 5842 5840 5839 5837 5835 5833 5831 5828 5826 5823 5820 5816 5813 5809 5805 5802 5798
5778 5783 5787 5792 5796 5801 5805 5810 5814 5817 5821 5824 5827 5830 5832 5834 5835 5837 5838 5839 5839 5840 5840 5839 5839 5838 5837 5836 5835 5833 5831 5829 5826 5824 5821 5818 5815 5811 5808 5804 5800 5796 5792
5772 5776 5781 5786 5790 5795 5800 5804 5808 5812 5815 5819 5822 5825 5827 5829 5831 5832 5833 5834 5835 5835 5835 5835 5834 5834 5833 5832 5830 5828 5826 5824 5821 5819 5816 5813 5809 5806 5802 5798 5795 5791 5787
5764 5769 5774 5779 5784 5789 5793 5798 5802 5806 5810 5813 5816 5819 5822 5824 5825 5827 5828 5829 5830 5830 5830 5830 5830 5829 5828 5827 5825 5824 5821 5819 5816 5814 5811 5807 5804 5801 5797 5793 5789 5785 5781
5756 5762 5767 5772 5778 5782 5787 5792 5796 5800 5804 5807 5811 5814 5816 5818 5820 5822 5823 5824 5825 5825 5825 5825 5825 5824 5823 5822 5820 5818 5816 5814 5811 5808 5805 5802 5798 5795 5791 5787 5783 5779 5775
5748 5755 5760 5766 5771 5776 5781 5785 5790 5794 5798 5801 5805 5808 5811 5813 5815 5816 5817 5818 5819 5820 5820 5820 5820 5819 5818 5817 5815 5813 5811 5809 5806 5803 5800 5796 5793 5789 5785 5781 5777 5773 5768
5740 5746 5752 5758 5764 5769 5774 5779 5783 5787 5791 5795 5799 5802 5805 5807 5809 5810 5812 5813 5814 5814 5815 5814 5814 5814 5813 5811 5810 5808 5806 5803 5800 5797 5794 5790 5787 5783 5779 5775 5771 5766 5762
5730 5738 5744 5751 5756 5762 5767 5773 5777 5782 5786 5789 5793 5796 5799 5801 5803 5805 5806 5807 5808 5809 5809 5809 5809 5808 5807 5806 5804 5802 5800 5797 5794 5791 5788 5784 5781 5777 5773 5769 5764 5760 5755
5721 5729 5736 5743 5749 5755 5761 5766 5771 5775 5778 5782 5786 5789 5792 5795 5797 5799 5800 5801 5802 5803 5803 5804 5803 5802 5801 5800 5799 5796 5794 5792 5788 5785 5782 5778 5774 5770 5766 5762 5758 5753 5748
5712 5720 5728 5734 5741 5747 5753 5758 5763 5767 5771 5776 5780 5783 5786 5789 5791 5793 5794 5795 5796 5797 5797 5798 5797 5796 5795 5794 5792 5791 5788 5786 5783 5779 5775 5772 5768 5764 5760 5755 5751 5746 5741
5704 5711 5719 5726 5732 5738 5744 5750 5756 5761 5766 5770 5774 5777 5779 5782 5784 5786 5788 5789 5790 5791 5791 5791 5791 5790 5789 5788 5786 5784 5782 5779 5777 5773 5770 5765 5761 5757 5753 5748 5743 5738 5733
5694 5701 5709 5716 5722 5729 5736 5742 5748 5754 5759 5762 5766 5769 5772 5775 5778 5780 5781 5783 5784 5784 5785 5785 5784 5783 5782 5781 5779 5777 5775 5772 5769 5766 5763 5759 5755 5750 5746 5741 5736 5731 5725
5682 5691 5698 5706 5713 5720 5727 5734 5740 5746 5750 5754 5758 5762 5765 5768 5771 5773 5775 5776 5777 5778 5778 5778 5777 5776 5775 5774 5772 5770 5768 5765 5762 5759 5756 5752 5748 5744 5738 5733 5728 5723 5717